Location: Unspecified
(0.0000°N, 0.0000°E)
Time: 21:52:45
(UTC+00:00)

SRMSAT - Pass Details

Date: 17 December 2017
Orbit: 849 x 866 km, 20.0° (Epoch: 25 April)

Event Time Altitude Azimuth Distance (km) Brightness Sun altitude
Exits shadow 04:57:55 13° 325° (NW) 2,246 ? -13.3°
Maximum altitude 04:59:56 16° 347° (NNW) 2,112 ? -12.9°
Drops below altitude 10° 05:03:22 10° 23° (NNE) 2,482 ? -12.1°
Sets 05:07:04 0° 45° (NE) 3,420 ? -11.2°
